カタログに戻る

STARLINK-36835

運用中通信VLEO
NORAD 67863·PAYLOAD·🇺🇸 United States

打ち上げ Feb 20, 2026 から Vandenberg Space Force Base

Loading…

次のパス (今後24時間)

TLE

最新Source: CelesTrak SupGP

元期: Sep 15, 2026, 04:00 UTC

1 67863C 26034P   26258.16715278  .00018416  00000+0  54429-3 0  2589
2 67863  53.1593  42.8487 0001270  92.6678 272.7934 15.34370908    14

AllMySatでSTARLINK-36835をリアルタイム追跡

Download on the App Store